Weather History for KPLU - May, 2013

Change the Weather History Date:

Tuesday, May 28, 2013

  Actual Average (KTCM) Record (KTCM)
Temperature  
Mean Temperature 56 °F -  
Max Temperature 62 °F 64 °F 93 °F (1983)
Min Temperature 50 °F 45 °F 32 °F (1966)
Degree Days  
Heating Degree Days 9    
Growing Degree Days 6 (Base 50)    
Moisture  
Dew Point 51 °F    
Average Humidity 88    
Maximum Humidity 100    
Minimum Humidity 59    
Precipitation  
Precipitation 0.08 in - - ()
Sea Level Pressure  
Sea Level Pressure 29.86 in    
Wind  
Wind Speed 2 mph (WSW)    
Max Wind Speed 13 mph    
Max Gust Speed 18 mph    
Visibility 9 miles    
Events Rain    
Averages and records for this station are not official NWS values.
T = Trace of Precipitation, MM = Missing Value Source: NWS Daily Summary

Daily Weather History Graph

Daily Weather History Graph

Search for Another Location

Airport or City:

Trip Planner

Search our weather history database for the weather conditions in past years. The results will help you decide how hot, cold, wet, or windy it might be!

Date:

Astronomy

May. 28, 2013 Rise Set
Actual Time 5:20 AM PDT 8:53 PM PDT
Civil Twilight 4:41 AM PDT 9:31 PM PDT
Nautical Twilight 3:51 AM PDT 10:22 PM PDT
Astronomical Twilight 2:43 AM PDT 11:31 PM PDT
Moon No Moon Rise 9:21 AM PDT (5/28)
Length of Visible Light 16h 49m
Length of Day
15h 33m
Waning Gibbous, 82% of the Moon is Illuminated
May 28
Waning Gibbous
May 31
Last Quarter
Jun 8
New
Jun 16
First Quarter
Jun 23
Full

Hourly Weather History & Observations

Time (PDT) Temp. Dew Point Humidity Pressure Visibility Wind Dir Wind Speed Gust Speed Precip Events Conditions
12:15 AM 53.6 °F 51.8 °F 94% 29.81 in 10.0 mi WSW 3.5 mph - N/A   Unknown
12:35 AM 53.6 °F 50.0 °F 88% 29.82 in 10.0 mi Calm Calm - N/A   Unknown
12:55 AM 51.8 °F 50.0 °F 94% 29.82 in 10.0 mi Calm Calm - N/A   Unknown
1:15 AM 51.8 °F 50.0 °F 94% 29.83 in 10.0 mi Calm Calm - N/A   Unknown
1:35 AM 51.8 °F 50.0 °F 94% 29.83 in 10.0 mi Calm Calm - N/A   Unknown
1:55 AM 51.8 °F 50.0 °F 94% 29.84 in 10.0 mi Calm Calm - N/A   Unknown
2:15 AM 51.8 °F 50.0 °F 94% 29.84 in 10.0 mi Calm Calm - N/A   Unknown
2:35 AM 51.8 °F 50.0 °F 94% 29.84 in 10.0 mi Calm Calm - N/A   Unknown
2:55 AM 51.8 °F 50.0 °F 94% 29.84 in 10.0 mi Calm Calm - N/A   Unknown
3:15 AM 51.8 °F 50.0 °F 94% 29.84 in 10.0 mi Calm Calm - N/A   Unknown
3:35 AM 51.8 °F 50.0 °F 94% 29.85 in 10.0 mi Calm Calm - N/A   Unknown
3:55 AM 50.0 °F 50.0 °F 100% 29.85 in 10.0 mi Calm Calm - N/A   Unknown
4:15 AM 50.0 °F 50.0 °F 100% 29.85 in 10.0 mi Calm Calm - N/A   Unknown
4:35 AM 50.0 °F 50.0 °F 100% 29.85 in 10.0 mi Calm Calm - N/A   Unknown
4:55 AM 50.0 °F 50.0 °F 100% 29.85 in 10.0 mi Calm Calm - N/A   Unknown
5:15 AM 50.0 °F 50.0 °F 100% 29.85 in 10.0 mi Calm Calm - N/A   Unknown
5:35 AM 50.0 °F 50.0 °F 100% 29.86 in 10.0 mi Calm Calm - N/A   Unknown
5:55 AM 50.0 °F 50.0 °F 100% 29.86 in 10.0 mi Calm Calm - N/A   Unknown
6:15 AM 50.0 °F 50.0 °F 100% 29.86 in 10.0 mi Calm Calm - N/A   Unknown
6:35 AM 50.0 °F 50.0 °F 100% 29.86 in 10.0 mi Calm Calm - N/A   Unknown
6:55 AM 51.8 °F 50.0 °F 94% 29.87 in 10.0 mi Calm Calm - N/A   Unknown
7:15 AM 51.8 °F 50.0 °F 94% 29.87 in 10.0 mi Calm Calm - N/A   Unknown
7:35 AM 51.8 °F 50.0 °F 94% 29.87 in 10.0 mi Calm Calm - N/A   Unknown
7:55 AM 53.6 °F 50.0 °F 88% 29.87 in 10.0 mi Calm Calm - N/A   Unknown
8:15 AM 53.6 °F 50.0 °F 88% 29.87 in 10.0 mi Calm Calm - N/A   Unknown
8:35 AM 53.6 °F 50.0 °F 88% 29.87 in 10.0 mi Calm Calm - N/A   Unknown
8:55 AM 55.4 °F 50.0 °F 82% 29.87 in 10.0 mi Calm Calm - N/A   Unknown
9:15 AM 55.4 °F 50.0 °F 82% 29.87 in 10.0 mi Calm Calm - N/A   Unknown
9:35 AM 57.2 °F 48.2 °F 72% 29.87 in 10.0 mi Calm Calm - N/A   Unknown
9:55 AM 57.2 °F 48.2 °F 72% 29.88 in 10.0 mi WSW 4.6 mph - N/A   Unknown
10:15 AM 57.2 °F 48.2 °F 72% 29.88 in 10.0 mi Calm Calm - N/A   Unknown
10:35 AM 57.2 °F 50.0 °F 77% 29.88 in 10.0 mi Calm Calm - N/A   Unknown
10:55 AM 59.0 °F 48.2 °F 67% 29.88 in 10.0 mi Calm Calm - N/A   Unknown
11:15 AM 59.0 °F 48.2 °F 67% 29.88 in 10.0 mi SSW 3.5 mph - N/A   Unknown
11:35 AM 59.0 °F 48.2 °F 67% 29.89 in 10.0 mi SSW 5.8 mph - N/A   Unknown
11:55 AM 57.2 °F 48.2 °F 72% 29.89 in 10.0 mi WSW 4.6 mph - N/A   Unknown
12:15 PM 60.8 °F 48.2 °F 63% 29.89 in 10.0 mi West 4.6 mph - N/A   Unknown
12:35 PM 62.6 °F 48.2 °F 59% 29.89 in 10.0 mi WSW 4.6 mph - N/A   Unknown
12:55 PM 57.2 °F 50.0 °F 77% 29.90 in 10.0 mi West 4.6 mph - N/A   Unknown
1:15 PM 57.2 °F 50.0 °F 77% 29.90 in 7.0 mi WSW 11.5 mph - N/A Rain Light Rain
1:35 PM 57.2 °F 51.8 °F 82% 29.90 in 7.0 mi SW 5.8 mph - N/A Rain Light Rain
1:55 PM 60.8 °F 51.8 °F 72% 29.90 in 10.0 mi SW 6.9 mph - N/A   Unknown
2:15 PM 59.0 °F 51.8 °F 77% 29.90 in 10.0 mi WSW 11.5 mph - N/A Rain Light Rain
2:35 PM 60.8 °F 48.2 °F 63% 29.90 in 10.0 mi SW 10.4 mph 18.4 mph N/A   Unknown
2:55 PM 62.6 °F 48.2 °F 59% 29.90 in 10.0 mi SW 9.2 mph 17.3 mph N/A   Unknown
3:15 PM 59.0 °F 50.0 °F 72% 29.90 in 10.0 mi West 6.9 mph 17.3 mph N/A   Unknown
3:35 PM 57.2 °F 51.8 °F 82% 29.90 in 10.0 mi Calm Calm - N/A Rain Light Rain
3:55 PM 60.8 °F 50.0 °F 68% 29.89 in 10.0 mi WSW 5.8 mph - N/A   Unknown
4:15 PM 59.0 °F 50.0 °F 72% 29.89 in 8.0 mi West 12.7 mph 18.4 mph N/A   Unknown
4:35 PM 55.4 °F 53.6 °F 94% 29.90 in 5.0 mi West 5.8 mph - 0.02 in Rain Light Rain
4:55 PM 57.2 °F 53.6 °F 88% 29.90 in 10.0 mi Calm Calm - 0.02 in Rain Light Rain
5:15 PM 55.4 °F 55.4 °F 100% 29.90 in 3.0 mi Calm Calm - 0.02 in Rain Light Rain
5:35 PM 57.2 °F 55.4 °F 94% 29.89 in 7.0 mi Calm Calm - 0.02 in Rain Light Rain
5:55 PM 57.2 °F 53.6 °F 88% 29.89 in 4.0 mi West 8.1 mph - 0.04 in Rain Light Rain
6:15 PM 53.6 °F 53.6 °F 100% 29.89 in 5.0 mi Calm Calm - N/A Rain Light Rain
6:35 PM 55.4 °F 53.6 °F 94% 29.88 in 10.0 mi Calm Calm - N/A   Unknown
6:55 PM 55.4 °F 53.6 °F 94% 29.87 in 10.0 mi Calm Calm - N/A   Unknown
7:15 PM 55.4 °F 53.6 °F 94% 29.86 in 10.0 mi Calm Calm - N/A   Unknown
7:35 PM 55.4 °F 53.6 °F 94% 29.85 in 10.0 mi Calm Calm - N/A   Unknown
7:55 PM 55.4 °F 53.6 °F 94% 29.85 in 10.0 mi Calm Calm - N/A   Unknown
8:15 PM 53.6 °F 51.8 °F 94% 29.85 in 10.0 mi Calm Calm - N/A   Unknown
8:35 PM 53.6 °F 51.8 °F 94% 29.85 in 2.5 mi Calm Calm - 0.01 in Rain Light Rain
8:55 PM 51.8 °F 51.8 °F 100% 29.84 in 4.0 mi Calm Calm - 0.02 in Rain Light Rain
9:15 PM 50.0 °F 50.0 °F 100% 29.84 in 10.0 mi Calm Calm - N/A   Unknown
9:35 PM 50.0 °F 50.0 °F 100% 29.84 in 5.0 mi Calm Calm - N/A Rain Light Rain
9:55 PM 50.0 °F 50.0 °F 100% 29.83 in 10.0 mi Calm Calm - N/A   Unknown
10:15 PM 50.0 °F 50.0 °F 100% 29.81 in 10.0 mi Calm Calm - N/A   Unknown
10:35 PM 50.0 °F 50.0 °F 100% 29.81 in 10.0 mi Calm Calm - N/A   Unknown
10:55 PM 50.0 °F 50.0 °F 100% 29.81 in 10.0 mi Calm Calm - N/A   Unknown
11:15 PM 50.0 °F 50.0 °F 100% 29.81 in 10.0 mi Calm Calm - N/A   Unknown
11:35 PM 50.0 °F 50.0 °F 100% 29.79 in 10.0 mi Calm Calm - N/A   Unknown
11:55 PM 50.0 °F 50.0 °F 100% 29.79 in 10.0 mi Calm Calm - N/A   Unknown